{"data":{"norad_id":61748,"intl_designator":"2024-199P","name":"SITRO-AIS 44","alt_names":[],"object_type":"PAYLOAD","status":"ACTIVE","operator":null,"country":"CIS","launch_date":"2024-11-04","launch_site_code":"VOSTO","launch_vehicle":null,"mission":null,"orbit_class":"UNKNOWN","rcs_meters":null,"size_class":null,"mass_kg":null,"dimensions":null,"purposes":[],"wikipedia_slug":null,"has_3d_model":false,"image_url":null,"decayed_at":null,"tle_current":{"epoch":"2026-09-22T22:26:59.540640Z","epoch_age_seconds":89613,"freshness":"FRESH","line1":"1 61748U 24199P   26265.93541135  .00391976  65904-4  84338-3 0  9995","line2":"2 61748  97.2602 150.4050 0004557 161.9526 198.1915 15.98479283153212","mean_motion":15.98479283,"eccentricity":0.0004557,"inclination_deg":97.2602,"raan_deg":150.405,"arg_perigee_deg":161.9526,"mean_anomaly_deg":198.1915,"bstar":0.00084338,"rev_number":15321,"period_min":90.085621710244,"perigee_km":275.60382348862,"apogee_km":281.67080759981,"semimajor_km":6656.7743155442,"source":"CELESTRAK","updated_at":"2026-09-23T09:00:21.026158Z"}}}